www.pogodaiklimat.ru

Погода и климат >> Архив погоды >> Китай >> Внутренняя Монголия >> Гуайцзыху


ПОГОДА в Гуайцзыху

  • Прогноз погоды в Гуайцзыху
  • Монитор погоды в Гуайцзыху

АРХИВ ПОГОДЫ в Гуайцзыху

Время (UTC), дата Ветер
(напр.,м/с)
 
Видим.   Явления Облачность Т
(С)
Тd
(С)
f
(%)
Тe
(С)
Тes
(С)
Комфортность P
(гПа)
Po
(гПа)
Тmin
(С)
Tmax
(С)
R
(мм)
R24
(мм)
S
(см)
03 18.08 В 7 20 км 5/5
[]
+30.7 +2.9 17 +28 +30 жарко 1000.1 897.7
06 18.08 В 9 9000 м 9/9
[]
+35.9 +0.9 11 +32 +33 жарко 996.9 896.5 +18.5
09 18.08 В 9
{18}
9000 м 8/8
[]
+35.9 -0.5 10 +32 +32 жарко 996.0 895.7
12 18.08 В 10
{18}
11 км 8/8
[]
+32.4 +1.5 14 +29 +29 жарко 996.2 894.8
18 18.08 В 3 30 км ?/? +26.7 +4.5 24 +26 +26 жарко 995.5 892.3 +37.0
21 18.08 В 4 28 км н/о +25.5 +5.1 27 +25 +25 комфорт 996.6 892.9
00 19.08 В 2 29 км 10/10
[]
+25.8 +7.4 31 +26 +26 жарко 998.3 894.5
03 19.08 С 2 26 км 10/10
[]
+26.4 +6.4 28 +26 +26 жарко 1001.6 897.7
06 19.08 С 4 23 км 10/10
[]
+25.6 +10.2 38 +26 +26 жарко 1004.9 900.4 +25.2
09 19.08 З 11 7000 м слаб. дождь 10/10
[]
+20.8 +12.0 57 +22 +22 комфорт 1008.2 901.7
12 19.08 З 5 24 км в посл. час дождь 9/9
[]
+18.7 +13.8 73 +19 +19 1009.4 902.1 0.0
18 19.08 З 8 20 км ?/? +18.2 +12.6 70 +18 +18 1010.0 902.4 +27.1
21 19.08 Ю 6 26 км н/о +17.2 +11.5 69 +16 +16 1011.1 903.1
00 20.08 З 5 29 км ясно +18.3 +10.4 60 +18 +19 1012.6 905.6
03 20.08 СЗ 4 29 км 3/3
[]
+23.5 +8.0 37 +24 +30 комфорт 1012.7 906.7
06 20.08 СЗ 4 28 км 1/1
[]
+28.6 +2.7 19 +27 +36 жарко 1010.8 906.7 +16.5
09 20.08 З 2 30 км 1/1
[]
+30.0 -1.4 13 +27 +33 жарко 1008.9 905.4
12 20.08 З 1 30 км 1/1
[]
+27.2 -0.8 16 +25 +25 комфорт 1009.1 904.7
18 20.08 В 5 30 км ?/? +20.9 +6.8 40 +22 +22 комфорт 1010.5 903.8 +30.5
21 20.08 В 9 16 км н/о +21.0 +2.3 29 +21 +21 комфорт 1010.8 904.1
00 21.08 В 5 24 км 9/9
[]
+19.6 +3.7 35 +20 +20 1012.6 905.2
03 21.08 В 6 28 км 10/10
[]
+22.8 +4.8 31 +23 +23 комфорт 1012.7 906.4
06 21.08 Ю 4 25 км 10/10
[]
+26.4 +7.4 30 +26 +26 жарко 1011.7 906.7 +19.1
09 21.08 Ю 5 28 км 10/10
[]
+26.6 +8.1 31 +27 +27 жарко 1011.2 906.4
12 21.08 Ю 2 30 км 10/10
[]
+25.1 +5.8 29 +25 +25 комфорт 1011.6 906.2
18 21.08 ЮЗ 3 28 км ?/? +21.1 +12.5 58 +23 +23 комфорт 1012.5 905.7 +27.0
21 21.08 З 2 29 км н/о +20.4 +13.6 65 +23 +23 комфорт 1013.0 905.9
00 22.08 Ю 1 27 км 9/9
[]
+20.0 +13.5 66 +23 +23 комфорт 1014.1 906.7
03 22.08 В 2 27 км {дождь} 9/9
[]
+21.2 +13.4 61 +24 +25 комфорт 1014.5 907.5
06 22.08 В 3 26 км {дождь} 10/10
[]
+24.9 +10.8 41 +26 +26 жарко 1012.3 906.8 +19.8
09 22.08 В 4 27 км 9/9
[]
+26.8 +10.1 35 +27 +28 жарко 1010.0 905.4
12 22.08 Ю 4 25 км 9/9
[]
+26.4 +9.3 34 +27 +27 жарко 1010.1 905.3
18 22.08 Ю 2 29 км ?/? +23.2 +9.6 42 +25 +25 комфорт 1009.6 903.8 +27.7
21 22.08 В 2 16 км слаб. дождь ?/? +19.7 +15.6 77 +22 +22 комфорт 1010.4 903.3
00 23.08 В 1 22 км в посл. час дождь 10/10
[]
+19.2 +15.9 81 +22 +22 комфорт 1011.2 903.9 0.5
03 23.08 В 4 27 км 10/10
[]
+21.6 +13.8 61 +24 +24 комфорт 1011.3 904.8
06 23.08 Ю 2 27 км 9/9
[]
+26.4 +11.0 38 +27 +29 жарко 1009.1 904.4 +19.0
09 23.08 З 3 26 км 3/3 2000 м
[]
+29.0 +10.7 32 +29 +33 жарко 1007.6 903.9
12 23.08 С 1 30 км 1/1 2000 м
[]
+26.5 +11.4 39 +28 +28 жарко 1008.1 903.6
18 23.08 Ю 5 30 км ?/? +20.9 +12.9 60 +23 +23 комфорт 1008.3 901.8 +29.5
21 23.08 Ю 6 27 км н/о +20.5 +13.5 64 +23 +23 комфорт 1007.6 901.1
00 24.08 С 2 26 км ясно +21.8 +14.2 62 +25 +26 комфорт 1009.2 903.0
03 24.08 Ю 3 17 км ясно +29.6 +11.2 32 +30 +40 жарко 1008.4 904.8
06 24.08 Ю 3 26 км ясно +33.1 +7.2 20 +31 +44 жарко 1005.9 903.7 +19.8
09 24.08 С 1 28 км 3/3 2000 м
[]
+34.7 +5.2 16 +32 +37 жарко 1003.6 902.1
12 24.08 В 1 12 км 3/3 2000 м
[]
+30.7 +5.9 21 +29 +29 жарко 1003.7 901.0
18 24.08 Ю 4 30 км ?/? +23.9 +4.8 29 +24 +24 комфорт 1004.3 899.3 +35.0
21 24.08 Ю 7 30 км н/о +23.3 +7.0 35 +24 +24 комфорт 1003.6 898.5
00 25.08 З 1 29 км 9/9
[]
+25.1 +7.3 32 +25 +25 комфорт 1006.0 901.2

 

Местоположение метеостанции Гуайцзыху (Внутренняя Монголия, Китай): широта 41.37 долгота 102.36 высота над уровнем моря 960 м.

В архиве по умолчанию представлена погода в Гуайцзыху за последнюю неделю. Архивные данные за месяц целиком и за предыдущие месяцы, начиная с января 2011 года, Вы можете получить, выбрав интересующий диапазон дат из раскрывающегося списка и нажав кнопку "Ввод!".


*Определитесь, кто Вы:
робот инопланетянин человек

Внимание! Время в таблицах - всемирное. Для получения местного времени необходимо прибавить поправку, которая равна 8 ч.

Смотрите также архив погоды в соседних городах и на ближайших метеорологических станциях:

Погода в Эдзин-Ци (Внутренняя Монголия, Китай) (126 км)
Погода в Баян Мод (Внутренняя Монголия, Китай) (192 км)
Погода в Шинэ Уса (Монголия) (246 км)
Погода в Даланзадгаде (Монголия) (298 км)
Погода в Миньцине (Цинхай, Китай) (311 км)
Погода в Чжанъе (Цинхай, Китай) (317 км)
Погода в Баинвендурьере (Внутренняя Монголия, Китай) (335 км)
Погода в Джартае (Внутренняя Монголия, Китай) (337 км)
Погода в Богде (Монголия) (365 км)
Погода в Цзюцюан (Ганьсу, Китай) (373 км)

Пояснения к столбцам:

Ветер - указаны скорость ветра в м/с - средняя за 10 мин, порывы в срок и между сроками (в фигурных скобках) и направление, откуда дует ветер: С - северный, СВ - северо-восточный, В - восточный, ЮВ - юго-восточный, Ю - южный, ЮЗ - юго-западный, З - западный, СЗ - северо-западный.
Видимость - горизонтальная дальность видимости в метрах или километрах. При видимости от 1 до 10 км при отсутствии осадков обычно наблюдается дымка, при ухудшении видимости до 1 км и менее - туман. В сухую погоду видимость может ухудшаться дымом, пылью или мглою.
Явления - указаны атмосферные явления, наблюдавшиеся в срок или в последний час перед сроком; фигурными скобками обозначены явления, наблюдавшиеся между сроками (за 1-3 часа до срока); квадратными скобками обозначены град или гололедные отложения с указанием их диаметра в мм.
Облачность - указаны через наклонную черту общая и нижняя облачность в баллах и высота нижней границы облаков в метрах; квадратными скобками обозначены формы облаков: Ci - перистые, Cs - перисто-слоистые, Cc - перисто-кучевые, Ac - высококучевые, As - высокослоистые, Sc - слоисто-кучевые, Ns - слоисто-дождевые, Cu - кучевые, Cb - кучево-дождевые. Подробнее классификацию облаков см. в Атласе облаков (PDF).
T - Температура воздуха - температура, измеренная на высоте 2 м над землей.
Td - Температура точки росы - температура, при понижении до которой содержащийся в воздухе водяной пар достигнет насыщения.
f - Относительная влажность воздуха - влажноcть воздуха, измеренная на высоте 2 м над землей.
Te - Эффективная температура - температура, которую ощущает одетый по сезону человек в тени. Характеристика душности погоды. При расчете учитывается влияние влажности воздуха и скорости ветра на теплоощущения человека.
Tes - Эффективная температура на солнце - температура, которую ощущает человек, с поправкой на солнечный нагрев. Характеристика знойности погоды. Зависит от высоты солнца над горизонтом, облачности и скорости ветра. Ночью, в пасмурную погоду, а также при ветре 12 м/с и более поправка равна нулю.
P - Атмосферное давление - приведенное к уровню моря атмосферное давление.
Po - Атмосферное давление - измеренное на уровне метеостанции атмосферное давление.
Tmin - Минимальная температура - минимум температуры воздуха на высоте 2 м над землей.
Tmax - Максимальная температура - максимум температуры воздуха на высоте 2 м над землей.
R - Количество осадков - Количество выпавших осадков за период времени, мм. При наведении курсора мыши на число - период времени, за который выпало указанное количество осадков.
R24 - Количество осадков - Количество выпавших осадков за 24 часа, мм.
S - Снежный покров - Высота снежного покрова, см. При наведении курсора мыши на число - состояние снежного покрова и степень покрытия местности в баллах.